Angel Fire, NM

4:31 PM MDT on May 28, 2017 (GMT -0600)
Angel Fire

Weather History for KAXX - January, 2013

Change the Weather History Date:

Friday, January 4, 2013

  Actual Average (KSKX) Record (KSKX)
Temperature  
Mean Temperature -6 °F -  
Max Temperature 24 °F 40 °F 53 °F (2001)
Min Temperature -36 °F 10 °F -16 °F (2013)
Degree Days  
Heating Degree Days 71    
Moisture  
Dew Point -19 °F    
Average Humidity 69    
Maximum Humidity 86    
Minimum Humidity 32    
Precipitation  
Precipitation 0.00 in - - ()
Sea Level Pressure  
Sea Level Pressure 30.13 in    
Wind  
Wind Speed 1 mph (WSW)    
Max Wind Speed 13 mph    
Max Gust Speed -    
Visibility 9 miles    
Events Fog , Snow    
Averages and records for this station are not official NWS values.
T = Trace of Precipitation, MM = Missing Value Source: NWS Daily Summary

Daily Weather History Graph

Daily Weather History Graph

Search for Another Location

Airport or City:

Trip Planner

Search our weather history database for the weather conditions in past years. The results will help you decide how hot, cold, wet, or windy it might be!

Date:

Astronomy

Jan. 04, 2013 Rise Set
Actual Time 7:13 AM MST 4:59 PM MST
Civil Twilight 6:44 AM MST 5:28 PM MST
Nautical Twilight 6:12 AM MST 6:00 PM MST
Astronomical Twilight 5:41 AM MST 6:31 PM MST
Moon No Moon Rise 11:10 AM MST (1/4)
Length of Visible Light 10h 43m
Length of Day
9h 46m
Waning Gibbous, 54% of the Moon is Illuminated
Jan 4
Waning Gibbous
Jan 4
Last Quarter
Jan 11
New
Jan 18
First Quarter
Jan 26
Full

Hourly Weather History & Observations

Time (MST) Temp. Windchill Dew Point Humidity Pressure Visibility Wind Dir Wind Speed Gust Speed Precip Events Conditions
12:15 AM -25.8 °F - -31.2 °F 76% 30.22 in 10.0 mi Calm Calm - N/A   Clear
12:35 AM -29.9 °F - -36.2 °F 72% 30.22 in 7.0 mi Calm Calm - N/A   Clear
12:55 AM -27.0 °F - -32.4 °F 75% 30.22 in 7.0 mi Calm Calm - N/A   Clear
1:35 AM -27.9 °F - -34.2 °F 72% 30.23 in 10.0 mi Calm Calm - N/A   Clear
1:55 AM -31.7 °F - -38.9 °F 68% 30.23 in 10.0 mi Calm Calm - N/A   Clear
2:15 AM -31.4 °F - -37.7 °F 71% 30.23 in 10.0 mi Calm Calm - N/A   Clear
4:55 AM -34.1 °F - -41.1 °F 68% 30.21 in 7.0 mi Calm Calm - N/A   Clear
5:15 AM -36.0 °F - -42.9 °F 69% 30.21 in 10.0 mi Calm Calm - N/A   Clear
5:35 AM -36.4 °F - -43.4 °F 68% 30.22 in 10.0 mi Calm Calm - N/A   Clear
6:15 AM -35.0 °F - -42.5 °F 66% 30.21 in 10.0 mi Calm Calm - N/A   Scattered Clouds
6:35 AM -33.9 °F - -40.9 °F 68% 30.21 in 10.0 mi Calm Calm - N/A   Scattered Clouds
6:55 AM -33.7 °F - -40.9 °F 68% 30.21 in 10.0 mi Calm Calm - N/A   Mostly Cloudy
7:15 AM -32.3 °F - -39.1 °F 69% 30.21 in 10.0 mi Calm Calm - N/A   Overcast
7:55 AM -33.2 °F - -40.2 °F 69% 30.22 in 10.0 mi Calm Calm - N/A   Mostly Cloudy
8:35 AM -31.5 °F - -38.7 °F 68% 30.22 in 10.0 mi Calm Calm - N/A   Clear
8:55 AM -27.0 °F - -32.8 °F 74% 30.22 in 10.0 mi Calm Calm - N/A   Clear
9:35 AM -20.2 °F - -25.4 °F 77% 30.22 in 3.0 mi Calm Calm - N/A   Haze
9:55 AM -20.4 °F - -26.9 °F 72% 30.21 in 3.0 mi Calm Calm - N/A   Haze
10:15 AM -19.8 °F -30.5 °F -26.0 °F 73% 30.20 in 5.0 mi NNE 3.5 mph - N/A   Haze
10:35 AM -18.0 °F - -23.3 °F 77% 30.19 in 10.0 mi Calm Calm - N/A   Clear
10:55 AM -15.5 °F - -20.7 °F 77% 30.17 in 10.0 mi Calm Calm - N/A   Clear
11:15 AM -15.2 °F - -20.4 °F 77% 30.16 in 10.0 mi Calm Calm - N/A   Clear
11:55 AM -11.6 °F - -16.4 °F 79% 30.13 in 0.5 mi Calm Calm - N/A Fog Light Freezing Fog
12:15 PM -9.4 °F - -14.1 °F 80% 30.11 in 1.2 mi Calm Calm - N/A   Mist
12:35 PM -6.2 °F - -10.5 °F 82% 30.09 in 0.8 mi Calm Calm - N/A Snow Light Snow
1:15 PM -3.1 °F - -6.9 °F 84% 30.06 in 10.0 mi Calm Calm - N/A   Clear
1:35 PM -1.5 °F - -5.3 °F 84% 30.05 in 10.0 mi Calm Calm - N/A   Clear
1:55 PM 0.5 °F - -3.1 °F 85% 30.05 in 10.0 mi Calm Calm - N/A   Clear
2:15 PM 2.8 °F - -0.9 °F 84% 30.03 in 10.0 mi Calm Calm - N/A   Clear
2:35 PM 1.8 °F - -1.7 °F 86% 30.03 in 10.0 mi Calm Calm - N/A   Clear
2:55 PM 4.3 °F - 0.5 °F 84% 30.03 in 10.0 mi Calm Calm - N/A   Clear
3:15 PM 17.6 °F 12.3 °F 10.6 °F 74% 30.03 in 10.0 mi SSW 3.5 mph - N/A   Clear
3:35 PM 24.6 °F - -0.6 °F 34% 30.04 in 10.0 mi Calm Calm - N/A   Clear
3:55 PM 24.6 °F - -1.3 °F 32% 30.05 in 10.0 mi Calm Calm - N/A   Clear
4:55 PM 18.9 °F 5.9 °F -5.8 °F 34% 30.05 in 10.0 mi WSW 12.7 mph - N/A   Clear
5:35 PM 16.3 °F 3.4 °F -4.2 °F 40% 30.06 in 10.0 mi WSW 11.5 mph - N/A   Clear
6:15 PM 16.3 °F 5.7 °F -6.3 °F 36% 30.07 in 10.0 mi SW 8.1 mph - N/A   Clear
6:35 PM 16.0 °F 4.4 °F -6.2 °F 37% 30.07 in 10.0 mi SW 9.2 mph - N/A   Clear
6:55 PM 14.5 °F 3.6 °F -5.4 °F 41% 30.07 in 10.0 mi SW 8.1 mph - N/A   Clear
7:35 PM 7.5 °F - -6.3 °F 53% 30.08 in 10.0 mi Calm Calm - N/A   Clear
7:55 PM 2.1 °F - -8.5 °F 61% 30.08 in 10.0 mi Calm Calm - N/A   Clear
8:15 PM 1.2 °F -8.5 °F -8.1 °F 65% 30.08 in 10.0 mi NNE 4.6 mph - N/A   Clear
8:55 PM -3.5 °F -13.9 °F -10.5 °F 72% 30.08 in 10.0 mi NE 4.6 mph - N/A   Clear
9:15 PM -5.6 °F - -11.6 °F 75% 30.08 in 10.0 mi Calm Calm - N/A   Clear
9:35 PM -7.2 °F - -13.0 °F 76% 30.09 in 10.0 mi Calm Calm - N/A   Clear
9:55 PM -9.6 °F - -14.6 °F 78% 30.09 in 10.0 mi Calm Calm - N/A   Clear
10:15 PM -10.7 °F - -15.5 °F 79% 30.10 in 10.0 mi Calm Calm - N/A   Clear
10:35 PM -8.0 °F - -12.1 °F 82% 30.10 in 10.0 mi Calm Calm - N/A   Clear
10:55 PM -9.8 °F - -15.3 °F 76% 30.11 in 10.0 mi Calm Calm - N/A   Clear
11:15 PM -9.8 °F - -13.9 °F 82% 30.11 in 10.0 mi Calm Calm - N/A   Clear
11:35 PM -10.5 °F - -15.5 °F 78% 30.11 in 10.0 mi Calm Calm - N/A   Clear
11:55 PM -13.0 °F - -17.1 °F 82% 30.11 in 10.0 mi Calm Calm - N/A   Clear